User: anonymous   Login
Location: Newark
(44.2003°N, 3.2583°E)
Time: 11:44:39
(UTC+00:00)
Language:

Explorer 7 - Orbit

View from above orbital plane
View from above orbital plane
View from above satellite
View from above satellite

Ground track
Ground track

The orbit data is extracted from the following two-line orbital elements,

1    22U 59009A   19286.92621519 +.00000233 +00000-0 +40807-4 0  9999
2    22 050.2835 183.3106 0140195 033.1049 327.8577 14.94953838433341
Epoch (UTC): 13 October 2019 22:13:44
Eccentricity: 0.0140195
inclination: 50.2835°
perigee height: 485 km
apogee height: 680 km
right ascension of ascending node: 183.3106°
argument of perigee: 33.1049°
revolutions per day: 14.94953838
mean anomaly at epoch: 327.8577°
orbit number at epoch: 43334

The dashed part of the orbit path shows where the satellite is in the earth's shadow,  

DLR